Lafayette, LA

4:34 AM CDT on April 29, 2017 (GMT -0500)
Lafayette Regional

Weather History for KLFT - May, 2013

Change the Weather History Date:

Friday, May 3, 2013

  Actual Average Record
Temperature  
Mean Temperature 54 °F 74 °F  
Max Temperature 60 °F 84 °F 94 °F (1943)
Min Temperature 48 °F 64 °F 42 °F (1929)
Degree Days  
Heating Degree Days 10    
Cooling Degree Days 0 9  
Month to date cooling degree days 13 25  
Year to date cooling degree days 185 279  
Growing Degree Days 5 (Base 50)    
Moisture  
Dew Point 47 °F    
Average Humidity 71    
Maximum Humidity 93    
Minimum Humidity 49    
Precipitation  
Precipitation 0.00 in 0.14 in 2.89 in (1922)
Month to date precipitation 0.83 0.42  
Year to date precipitation 27.22 18.26  
Sea Level Pressure  
Sea Level Pressure 30.02 in    
Wind  
Wind Speed 14 mph (NNW)    
Max Wind Speed 23 mph    
Max Gust Speed 29 mph    
Visibility 10 miles    
Events Rain    
T = Trace of Precipitation, MM = Missing Value Source: NWS Daily Summary

Daily Weather History Graph

Daily Weather History Graph

Search for Another Location

Airport or City:

Trip Planner

Search our weather history database for the weather conditions in past years. The results will help you decide how hot, cold, wet, or windy it might be!

Date:

Astronomy

May. 03, 2013 Rise Set
Actual Time 6:22 AM CDT 7:47 PM CDT
Civil Twilight 5:57 AM CDT 8:12 PM CDT
Nautical Twilight 5:26 AM CDT 8:43 PM CDT
Astronomical Twilight 4:55 AM CDT 9:15 PM CDT
Moon 2:20 AM CDT (5/3) 2:07 PM CDT (5/3)
Length of Visible Light 14h 15m
Length of Day
13h 24m
Last Quarter, 37% of the Moon is Illuminated
May 3
Last Quarter
May 9
New
May 17
First Quarter
May 24
Full
May 31
Last Quarter

Hourly Weather History & Observations

Time (CDT) Temp. Dew Point Humidity Pressure Visibility Wind Dir Wind Speed Gust Speed Precip Events Conditions
12:29 AM 60.8 °F 57.2 °F 88% 29.99 in 4.0 mi NW 16.1 mph 26.5 mph 0.00 in Rain Light Rain
12:53 AM 60.1 °F 57.9 °F 93% 29.99 in 9.0 mi NW 13.8 mph 21.9 mph 0.00 in   Overcast
1:53 AM 57.9 °F 55.0 °F 90% 29.98 in 10.0 mi NW 13.8 mph 23.0 mph N/A   Overcast
2:53 AM 57.0 °F 54.0 °F 89% 29.97 in 10.0 mi NW 13.8 mph 19.6 mph N/A   Overcast
3:53 AM 55.9 °F 52.0 °F 87% 29.97 in 10.0 mi NNW 19.6 mph 26.5 mph N/A   Overcast
4:53 AM 55.0 °F 50.0 °F 83% 29.98 in 10.0 mi NNW 11.5 mph - N/A   Overcast
5:08 AM 55.4 °F 50.0 °F 82% 29.98 in 10.0 mi NNW 15.0 mph - N/A   Overcast
5:18 AM 55.4 °F 51.8 °F 88% 29.99 in 10.0 mi NNW 15.0 mph - N/A   Overcast
5:53 AM 53.1 °F 48.9 °F 86% 30.00 in 8.0 mi NNW 16.1 mph 23.0 mph N/A   Overcast
6:53 AM 51.1 °F 48.0 °F 89% 30.02 in 8.0 mi NW 16.1 mph - N/A   Overcast
7:50 AM 50.0 °F 46.4 °F 87% 30.03 in 9.0 mi NW 17.3 mph 24.2 mph N/A   Overcast
7:53 AM 50.0 °F 46.0 °F 86% 30.04 in 10.0 mi NNW 16.1 mph 24.2 mph N/A   Overcast
8:13 AM 50.0 °F 46.4 °F 87% 30.04 in 10.0 mi NNW 16.1 mph 21.9 mph N/A   Overcast
8:53 AM 50.0 °F 46.0 °F 86% 30.04 in 9.0 mi NNW 12.7 mph - N/A   Overcast
9:35 AM 51.8 °F 46.4 °F 82% 30.04 in 10.0 mi NW 16.1 mph 20.7 mph N/A   Overcast
9:53 AM 51.1 °F 45.0 °F 80% 30.04 in 10.0 mi NNW 19.6 mph 24.2 mph N/A   Overcast
10:53 AM 52.0 °F 45.0 °F 77% 30.05 in 10.0 mi NNW 16.1 mph - N/A   Overcast
11:31 AM 53.6 °F 44.6 °F 72% 30.04 in 10.0 mi NNW 20.7 mph 26.5 mph N/A   Overcast
11:53 AM 54.0 °F 44.1 °F 69% 30.04 in 10.0 mi NNW 17.3 mph 21.9 mph N/A   Overcast
12:53 PM 54.0 °F 44.1 °F 69% 30.04 in 10.0 mi NNW 16.1 mph 24.2 mph N/A   Overcast
1:53 PM 59.0 °F 45.0 °F 60% 30.03 in 10.0 mi NNW 19.6 mph 25.3 mph N/A   Overcast
2:53 PM 59.0 °F 44.1 °F 58% 30.02 in 10.0 mi NNW 18.4 mph 26.5 mph N/A   Mostly Cloudy
3:45 PM 59.0 °F 42.8 °F 55% 30.01 in 10.0 mi North 19.6 mph 27.6 mph N/A   Scattered Clouds
3:53 PM 59.0 °F 43.0 °F 55% 30.01 in 10.0 mi NNW 19.6 mph - N/A   Partly Cloudy
4:53 PM 59.0 °F 42.1 °F 53% 30.00 in 10.0 mi North 18.4 mph 28.8 mph N/A   Scattered Clouds
5:53 PM 60.1 °F 41.0 °F 49% 30.00 in 10.0 mi North 18.4 mph 23.0 mph N/A   Clear
6:53 PM 59.0 °F 41.0 °F 51% 30.00 in 10.0 mi North 18.4 mph 25.3 mph N/A   Clear
7:53 PM 57.0 °F 41.0 °F 55% 30.02 in 10.0 mi North 11.5 mph - N/A   Clear
8:53 PM 55.0 °F 42.1 °F 62% 30.04 in 10.0 mi North 5.8 mph - N/A   Clear
9:53 PM 53.1 °F 42.1 °F 66% 30.06 in 10.0 mi North 5.8 mph - N/A   Clear
10:53 PM 52.0 °F 42.1 °F 69% 30.06 in 10.0 mi North 3.5 mph - N/A   Clear
11:53 PM 50.0 °F 43.0 °F 77% 30.06 in 10.0 mi Calm Calm - N/A   Clear